EN

Hourly Weather Altenau

Today, 17 January, Sunday

Time Temperature Precipitation Wind Pressure Humidity
00:00 -6°C° 0 mm 1 mps 705 mmHg 87%
01:00 -6°C° 0 mm 1 mps 704 mmHg 85%
02:00 -6°C° 0 mm 1 mps 704 mmHg 85%
03:00 -6°C° 0 mm 1 mps 703 mmHg 84%
04:00 -7°C° 0 mm 1 mps 703 mmHg 83%
05:00 -7°C° 0 mm 1 mps 703 mmHg 83%
06:00 -7°C° 0 mm 1 mps 703 mmHg 83%
07:00 -7°C° 0 mm 1 mps 703 mmHg 83%
08:00 -6°C° 0 mm 1 mps 703 mmHg 83%
09:00 -6°C° 0 mm 1 mps 704 mmHg 82%
10:00 -4°C° 0 mm 1 mps 704 mmHg 81%
11:00 -4°C° 0 mm 1 mps 704 mmHg 81%
12:00 -3°C° 0 mm 1 mps 704 mmHg 80%
13:00 -3°C° 0 mm 1 mps 704 mmHg 79%
14:00 -3°C° 0 mm 1 mps 704 mmHg 81%
15:00 -3°C° 0 mm 1 mps 704 mmHg 84%
16:00 -3°C° 0 mm 1 mps 704 mmHg 86%
17:00 -4°C° 0 mm 1 mps 705 mmHg 88%
18:00 -4°C° 0 mm 1 mps 705 mmHg 90%
19:00 -4°C° 0 mm 1 mps 705 mmHg 92%
20:00 -4°C° 0.1 mm 1 mps 705 mmHg 94%
21:00 -4°C° 0.1 mm 1 mps 705 mmHg 95%
22:00 -3°C° 0.1 mm 1 mps 705 mmHg 96%
23:00 -5°C° 0.3 mm 2 mps 705 mmHg 97%

Tomorrow, 18 January, Monday

Time Temperature Precipitation Wind Pressure Humidity
00:00 -4°C° 0.3 mm 2 mps 706 mmHg 97%
01:00 -3°C° 0.3 mm 2 mps 706 mmHg 98%
02:00 -4°C° 0.4 mm 3 mps 706 mmHg 98%
03:00 -4°C° 0.4 mm 3 mps 705 mmHg 97%
04:00 -3°C° 0.4 mm 4 mps 705 mmHg 97%
05:00 -3°C° 0.1 mm 4 mps 706 mmHg 97%
06:00 -4°C° 0.1 mm 4 mps 706 mmHg 96%
07:00 -4°C° 0.1 mm 3 mps 706 mmHg 95%
08:00 -4°C° 0 mm 4 mps 706 mmHg 94%
09:00 -3°C° 0 mm 4 mps 706 mmHg 93%
10:00 -3°C° 0 mm 4 mps 706 mmHg 92%
11:00 -3°C° 0.2 mm 4 mps 706 mmHg 93%
12:00 -4°C° 0.2 mm 5 mps 706 mmHg 95%
13:00 -4°C° 0.2 mm 5 mps 706 mmHg 96%
14:00 -4°C° 0.1 mm 5 mps 706 mmHg 94%
15:00 -4°C° 0.1 mm 5 mps 705 mmHg 92%
16:00 -4°C° 0.1 mm 5 mps 705 mmHg 91%
17:00 -4°C° 0.6 mm 5 mps 705 mmHg 93%
18:00 -4°C° 0.6 mm 5 mps 705 mmHg 95%
19:00 -4°C° 0.6 mm 6 mps 705 mmHg 97%
20:00 -4°C° 0.4 mm 6 mps 704 mmHg 97%
21:00 -4°C° 0.4 mm 6 mps 704 mmHg 97%
22:00 -4°C° 0.4 mm 6 mps 704 mmHg 96%
23:00 -4°C° 0.3 mm 5 mps 704 mmHg 96%

Day after tomorrow, 19 January, Tuesday

Time Temperature Precipitation Wind Pressure Humidity
00:00 -4°C° 0.3 mm 5 mps 704 mmHg 96%
01:00 -4°C° 0.3 mm 5 mps 704 mmHg 96%
02:00 -4°C° 0.3 mm 5 mps 703 mmHg 96%
03:00 -4°C° 0.3 mm 5 mps 702 mmHg 95%
04:00 -4°C° 0.3 mm 6 mps 701 mmHg 95%
05:00 -4°C° 0.2 mm 6 mps 701 mmHg 95%
06:00 -4°C° 0.2 mm 5 mps 700 mmHg 96%
07:00 -4°C° 0.2 mm 5 mps 700 mmHg 96%
08:00 -4°C° 0.7 mm 5 mps 699 mmHg 96%
09:00 -2°C° 0.7 mm 5 mps 698 mmHg 96%
10:00 -2°C° 0.7 mm 5 mps 698 mmHg 96%
11:00 -2°C° 1.1 mm 5 mps 697 mmHg 96%
12:00 -2°C° 1.1 mm 5 mps 696 mmHg 95%
13:00 -1°C° 1.1 mm 5 mps 696 mmHg 95%
14:00 -2°C° 1.8 mm 6 mps 695 mmHg 95%
15:00 -1°C° 1.8 mm 6 mps 695 mmHg 94%
16:00 0°C° 1.8 mm 7 mps 695 mmHg 94%
17:00 0°C° 0.9 mm 7 mps 695 mmHg 92%
18:00 +2°C° 0.9 mm 7 mps 695 mmHg 91%
19:00 +1°C° 0.9 mm 8 mps 696 mmHg 90%
20:00 +2°C° 0 mm 7 mps 696 mmHg 89%
21:00 0°C° 0 mm 7 mps 696 mmHg 89%
22:00 +1°C° 0 mm 6 mps 696 mmHg 89%
23:00 -1°C° 0 mm 6 mps 696 mmHg 89%

20 January, Wednesday

Time Temperature Precipitation Wind Pressure Humidity
00:00 -1°C° 0 mm 6 mps 696 mmHg 89%
01:00 -1°C° 0 mm 6 mps 696 mmHg 89%
02:00 -2°C° 0 mm 6 mps 696 mmHg 88%
03:00 -2°C° 0 mm 6 mps 696 mmHg 86%
04:00 -3°C° 0 mm 6 mps 695 mmHg 85%
05:00 -3°C° 0 mm 6 mps 695 mmHg 85%
06:00 -3°C° 0 mm 6 mps 695 mmHg 85%
07:00 -2°C° 0 mm 6 mps 695 mmHg 85%
08:00 -2°C° 0 mm 6 mps 695 mmHg 85%
09:00 -2°C° 0 mm 6 mps 695 mmHg 84%
10:00 -1°C° 0 mm 6 mps 695 mmHg 83%
11:00 -1°C° 0 mm 6 mps 695 mmHg 81%
12:00 +1°C° 0 mm 6 mps 695 mmHg 79%
13:00 +1°C° 0 mm 6 mps 695 mmHg 76%
14:00 +1°C° 0 mm 5 mps 694 mmHg 77%
15:00 0°C° 0 mm 5 mps 694 mmHg 78%
16:00 0°C° 0 mm 5 mps 694 mmHg 79%
17:00 0°C° 0 mm 5 mps 694 mmHg 81%
18:00 -1°C° 0 mm 5 mps 694 mmHg 82%
19:00 -1°C° 0 mm 4 mps 694 mmHg 84%
20:00 -1°C° 0 mm 5 mps 694 mmHg 83%
21:00 0°C° 0 mm 5 mps 693 mmHg 83%
22:00 0°C° 0 mm 5 mps 693 mmHg 82%
23:00 -1°C° 0 mm 6 mps 693 mmHg 80%

21 January, Thursday

Time Temperature Precipitation Wind Pressure Humidity
00:00 +1°C° 0 mm 6 mps 693 mmHg 78%
01:00 +1°C° 0 mm 6 mps 692 mmHg 77%
02:00 +1°C° 0 mm 6 mps 692 mmHg 77%
03:00 0°C° 0 mm 7 mps 692 mmHg 78%
04:00 0°C° 0 mm 7 mps 691 mmHg 79%
05:00 -1°C° 0 mm 7 mps 691 mmHg 78%
06:00 -1°C° 0 mm 7 mps 690 mmHg 78%
07:00 -1°C° 0 mm 7 mps 690 mmHg 77%
08:00 0°C° 0 mm 8 mps 689 mmHg 74%
09:00 0°C° 0 mm 9 mps 689 mmHg 72%
10:00 0°C° 0 mm 9 mps 689 mmHg 69%
11:00 0°C° 0.1 mm 9 mps 689 mmHg 69%
12:00 +1°C° 0.1 mm 8 mps 690 mmHg 69%
13:00 +2°C° 0.1 mm 7 mps 691 mmHg 69%
14:00 +1°C° 0 mm 6 mps 690 mmHg 71%
15:00 +1°C° 0 mm 6 mps 690 mmHg 72%
16:00 0°C° 0 mm 5 mps 690 mmHg 74%
17:00 0°C° 0 mm 5 mps 690 mmHg 76%
18:00 -2°C° 0 mm 6 mps 690 mmHg 77%
19:00 -2°C° 0 mm 6 mps 690 mmHg 79%
20:00 -2°C° 0 mm 6 mps 690 mmHg 80%
21:00 -2°C° 0 mm 6 mps 690 mmHg 80%
22:00 -2°C° 0 mm 7 mps 690 mmHg 81%
23:00 -2°C° 0 mm 6 mps 690 mmHg 82%

22 January, Friday

Time Temperature Precipitation Wind Pressure Humidity
00:00 -2°C° 0 mm 6 mps 690 mmHg 84%
01:00 -2°C° 0 mm 5 mps 689 mmHg 86%
02:00 -2°C° 0 mm 5 mps 689 mmHg 87%
03:00 -1°C° 0 mm 5 mps 689 mmHg 89%
04:00 -1°C° 0 mm 4 mps 688 mmHg 90%
05:00 0°C° 0.4 mm 3 mps 688 mmHg 92%
06:00 -1°C° 0.4 mm 2 mps 687 mmHg 94%
07:00 +1°C° 0.4 mm 1 mps 687 mmHg 97%
08:00 +1°C° 1.6 mm 2 mps 687 mmHg 96%
09:00 0°C° 1.6 mm 3 mps 687 mmHg 95%
10:00 0°C° 1.6 mm 4 mps 687 mmHg 94%
11:00 -1°C° 0.9 mm 4 mps 687 mmHg 95%
12:00 0°C° 0.9 mm 3 mps 687 mmHg 96%
13:00 -1°C° 0.9 mm 3 mps 686 mmHg 96%
14:00 -1°C° 0.3 mm 2 mps 687 mmHg 96%
15:00 -1°C° 0.3 mm 2 mps 687 mmHg 95%
16:00 -1°C° 0.3 mm 2 mps 687 mmHg 94%
17:00 -1°C° 0 mm 2 mps 688 mmHg 94%
18:00 -2°C° 0 mm 3 mps 688 mmHg 93%
19:00 -2°C° 0 mm 3 mps 689 mmHg 93%
20:00 -2°C° 0 mm 3 mps 690 mmHg 92%
21:00 -2°C° 0 mm 3 mps 690 mmHg 92%
22:00 -4°C° 0 mm 3 mps 691 mmHg 91%
23:00 -4°C° 0 mm 3 mps 691 mmHg 91%
Show more